INTELSAT 39 (IS-39)

Last updated on Wed May 14 2025 00:02:45 GMT+0000 (Coordinated Universal Time)

1 44476U 19049B 25133.53497339 .00000050 00000+0 00000+0 0 9998 2 44476 0.0161 295.6035 0000430 34.5567 155.9213 1.00271555 21120
UTC large
Height (km)
Speed (km/s)
/
Latitude / Longitude
Inclination (degrees)
Orbital Period (minutes)
Azimuth
Elevation
Range (km)
Doppler Factor

Next 0 passes for location: London (51.5072 / 0.1276)

Sorry there are no passes over London.